{"data":{"norad_id":58327,"intl_designator":"2023-174BZ","name":"FLOCK 4Q-4","alt_names":[],"object_type":"PAYLOAD","status":"ACTIVE","operator":null,"country":"US","launch_date":"2023-11-11","launch_site_code":"AFWTR","launch_vehicle":null,"mission":null,"orbit_class":"UNKNOWN","rcs_meters":null,"size_class":null,"mass_kg":null,"dimensions":null,"purposes":["earth_obs"],"wikipedia_slug":null,"has_3d_model":false,"image_url":null,"decayed_at":null,"tle_current":{"epoch":"2026-05-25T04:47:38.858784Z","epoch_age_seconds":53861,"freshness":"FRESH","line1":"1 58327U 23174BZ  26145.19975531  .00020609  00000+0  40215-3 0  9991","line2":"2 58327  97.3821 232.4214 0005084 229.8652 130.2153 15.47515891142004","mean_motion":15.47515891,"eccentricity":0.0005084,"inclination_deg":97.3821,"raan_deg":232.4214,"arg_perigee_deg":229.8652,"mean_anomaly_deg":130.2153,"bstar":0.00040215,"rev_number":14200,"period_min":93.052356255255,"perigee_km":420.53743725207,"apogee_km":427.45384572194,"semimajor_km":6802.132641487,"source":"CELESTRAK","updated_at":"2026-05-25T13:38:13.301551Z"}}}